Time,TemperatureF,DewpointF,PressureIn,WindDirection,WindDirectionDegrees,WindSpeedMPH,WindSpeedGustMPH,Humidity,HourlyPrecipIn,Conditions,Clouds,dailyrainin,SoftwareType,DateUTC
2013-07-13 00:00:00,77.0,64.3,30.05,SSE,160,0.0,3.0,65,0.00,,,0.00,VWS V14.01,2013-07-13 05:00:00,
2013-07-13 00:02:00,76.9,64.2,30.05,SSE,160,0.0,0.0,65,0.00,,,0.00,VWS V14.01,2013-07-13 05:02:00,
2013-07-13 00:07:00,76.6,64.4,30.05,SSE,159,0.0,1.0,66,0.00,,,0.00,VWS V14.01,2013-07-13 05:07:00,
2013-07-13 00:12:00,76.4,64.2,30.05,South,185,0.0,2.0,66,0.00,,,0.00,VWS V14.01,2013-07-13 05:12:00,
2013-07-13 00:17:00,76.2,64.4,30.05,SSE,163,0.0,2.0,67,0.00,,,0.00,VWS V14.01,2013-07-13 05:17:00,
2013-07-13 00:22:00,75.9,64.2,30.05,SSE,155,1.5,2.0,67,0.00,,,0.00,VWS V14.01,2013-07-13 05:22:00,
2013-07-13 00:27:00,75.7,64.4,30.05,SSE,156,0.0,2.0,68,0.00,,,0.00,VWS V14.01,2013-07-13 05:27:00,
2013-07-13 00:32:00,75.3,64.4,30.06,SSE,156,0.0,2.0,69,0.00,,,0.00,VWS V14.01,2013-07-13 05:32:00,
2013-07-13 00:37:00,75.0,64.6,30.06,South,169,0.0,2.0,70,0.00,,,0.00,VWS V14.01,2013-07-13 05:37:00,
2013-07-13 00:42:00,74.7,64.3,30.06,South,169,0.0,2.0,70,0.00,,,0.00,VWS V14.01,2013-07-13 05:42:00,
2013-07-13 00:47:00,74.3,64.3,30.06,South,187,0.0,2.0,71,0.00,,,0.00,VWS V14.01,2013-07-13 05:47:00,
2013-07-13 00:52:00,73.9,64.3,30.06,South,187,0.0,2.0,72,0.00,,,0.00,VWS V14.01,2013-07-13 05:52:00,
2013-07-13 00:57:00,73.4,64.2,30.06,South,187,0.0,2.0,73,0.00,,,0.00,VWS V14.01,2013-07-13 05:57:00,
2013-07-13 01:02:00,72.7,63.9,30.06,South,187,0.0,2.0,74,0.00,,,0.00,VWS V14.01,2013-07-13 06:02:00,
2013-07-13 01:07:00,72.2,64.2,30.06,South,187,0.0,2.0,76,0.00,,,0.00,VWS V14.01,2013-07-13 06:07:00,
2013-07-13 01:12:00,71.7,63.7,30.05,South,187,0.0,2.0,76,0.00,,,0.00,VWS V14.01,2013-07-13 06:12:00,
2013-07-13 01:17:00,71.4,64.2,30.05,South,187,0.0,2.0,78,0.00,,,0.00,VWS V14.01,2013-07-13 06:17:00,
2013-07-13 01:22:00,71.0,63.8,30.05,South,187,0.0,2.0,78,0.00,,,0.00,VWS V14.01,2013-07-13 06:22:00,
2013-07-13 01:27:00,70.5,63.7,30.05,South,187,0.0,2.0,79,0.00,,,0.00,VWS V14.01,2013-07-13 06:27:00,
2013-07-13 01:32:00,70.2,63.8,30.05,South,187,0.0,2.0,80,0.00,,,0.00,VWS V14.01,2013-07-13 06:32:00,
2013-07-13 01:37:00,69.8,63.4,30.05,South,187,0.0,2.0,80,0.00,,,0.00,VWS V14.01,2013-07-13 06:37:00,
2013-07-13 01:42:00,69.5,63.4,30.05,South,187,0.0,2.0,81,0.00,,,0.00,VWS V14.01,2013-07-13 06:42:00,
2013-07-13 01:47:00,69.3,63.6,30.05,South,187,0.0,2.0,82,0.00,,,0.00,VWS V14.01,2013-07-13 06:47:00,
2013-07-13 01:52:00,69.1,63.4,30.05,South,187,0.0,2.0,82,0.00,,,0.00,VWS V14.01,2013-07-13 06:52:00,
2013-07-13 01:57:00,68.9,63.2,30.05,South,187,0.0,2.0,82,0.00,,,0.00,VWS V14.01,2013-07-13 06:57:00,
2013-07-13 02:00:00,68.7,63.3,30.05,South,187,0.0,2.0,83,0.00,,,0.00,VWS V14.01,2013-07-13 07:00:00,
2013-07-13 02:02:00,68.6,63.2,30.05,South,187,0.0,0.0,83,0.00,,,0.00,VWS V14.01,2013-07-13 07:02:00,
2013-07-13 02:07:00,68.4,63.0,30.05,South,187,0.0,0.0,83,0.00,,,0.00,VWS V14.01,2013-07-13 07:07:00,
2013-07-13 02:12:00,68.1,63.1,30.06,South,187,0.0,0.0,84,0.00,,,0.00,VWS V14.01,2013-07-13 07:12:00,
2013-07-13 02:17:00,67.9,63.2,30.06,South,187,0.0,0.0,85,0.00,,,0.00,VWS V14.01,2013-07-13 07:17:00,
2013-07-13 02:22:00,67.9,63.2,30.06,South,187,0.0,0.0,85,0.00,,,0.00,VWS V14.01,2013-07-13 07:22:00,
2013-07-13 02:27:00,67.6,62.9,30.06,South,187,0.0,0.0,85,0.00,,,0.00,VWS V14.01,2013-07-13 07:27:00,
2013-07-13 02:32:00,67.6,63.3,30.06,South,187,0.0,0.0,86,0.00,,,0.00,VWS V14.01,2013-07-13 07:32:00,
2013-07-13 02:37:00,68.2,63.2,30.06,South,188,0.0,1.0,84,0.00,,,0.00,VWS V14.01,2013-07-13 07:37:00,
2013-07-13 02:42:00,68.6,63.2,30.06,SE,134,0.0,1.0,83,0.00,,,0.00,VWS V14.01,2013-07-13 07:42:00,
2013-07-13 02:47:00,68.8,63.1,30.06,SSE,159,0.0,1.0,82,0.00,,,0.00,VWS V14.01,2013-07-13 07:47:00,
2013-07-13 02:52:00,69.0,62.9,30.06,SE,128,0.0,2.0,81,0.00,,,0.00,VWS V14.01,2013-07-13 07:52:00,
2013-07-13 02:57:00,69.3,62.9,30.06,SE,135,0.0,2.0,80,0.00,,,0.00,VWS V14.01,2013-07-13 07:57:00,
2013-07-13 03:02:00,69.3,62.5,30.07,SE,134,0.0,2.0,79,0.00,,,0.00,VWS V14.01,2013-07-13 08:02:00,
2013-07-13 03:07:00,69.2,62.4,30.07,SE,139,0.0,2.0,79,0.00,,,0.00,VWS V14.01,2013-07-13 08:07:00,
2013-07-13 03:12:00,69.0,62.2,30.06,SSW,207,0.0,2.0,79,0.00,,,0.00,VWS V14.01,2013-07-13 08:12:00,
2013-07-13 03:17:00,68.8,62.4,30.07,SSW,207,0.0,2.0,80,0.00,,,0.00,VWS V14.01,2013-07-13 08:17:00,
2013-07-13 03:22:00,68.5,62.1,30.07,SSW,203,0.0,2.0,80,0.00,,,0.00,VWS V14.01,2013-07-13 08:22:00,
2013-07-13 03:26:00,68.3,61.5,30.07,SE,127,0.0,2.0,79,0.00,,,0.00,VWS V14.01,2013-07-13 08:26:00,
2013-07-13 03:31:00,68.2,61.5,30.07,SE,127,0.0,2.0,79,0.00,,,0.00,VWS V14.01,2013-07-13 08:31:00,
2013-07-13 03:36:00,68.0,61.2,30.07,SE,127,0.0,2.0,79,0.00,,,0.00,VWS V14.01,2013-07-13 08:36:00,
2013-07-13 03:41:00,67.8,61.1,30.07,SE,127,0.0,2.0,79,0.00,,,0.00,VWS V14.01,2013-07-13 08:41:00,
2013-07-13 03:46:00,67.5,61.1,30.07,SE,127,0.0,2.0,80,0.00,,,0.00,VWS V14.01,2013-07-13 08:46:00,
2013-07-13 03:51:00,67.2,60.8,30.07,SE,135,0.0,2.0,80,0.00,,,0.00,VWS V14.01,2013-07-13 08:51:00,
2013-07-13 03:56:00,67.2,60.5,30.07,SE,138,0.0,2.0,79,0.00,,,0.00,VWS V14.01,2013-07-13 08:56:00,
2013-07-13 04:00:00,67.2,60.5,30.07,SE,145,0.0,2.0,79,0.00,,,0.00,VWS V14.01,2013-07-13 09:00:00,
2013-07-13 04:01:00,67.1,60.4,30.07,SE,145,0.0,1.0,79,0.00,,,0.00,VWS V14.01,2013-07-13 09:01:00,
2013-07-13 04:06:00,67.0,59.9,30.07,SE,146,0.0,1.0,78,0.00,,,0.00,VWS V14.01,2013-07-13 09:06:00,
2013-07-13 04:11:00,67.0,59.9,30.08,SE,145,0.0,1.0,78,0.00,,,0.00,VWS V14.01,2013-07-13 09:11:00,
2013-07-13 04:16:00,66.8,59.7,30.08,SE,145,0.0,1.0,78,0.00,,,0.00,VWS V14.01,2013-07-13 09:16:00,
2013-07-13 04:21:00,66.8,59.4,30.07,SE,145,0.0,1.0,77,0.00,,,0.00,VWS V14.01,2013-07-13 09:21:00,
2013-07-13 04:26:00,66.7,58.9,30.07,SE,146,0.0,1.0,76,0.00,,,0.00,VWS V14.01,2013-07-13 09:26:00,
2013-07-13 04:31:00,66.8,58.6,30.07,SSW,195,0.0,1.0,75,0.00,,,0.00,VWS V14.01,2013-07-13 09:31:00,
2013-07-13 04:36:00,66.9,58.3,30.07,SSE,155,0.0,1.0,74,0.00,,,0.00,VWS V14.01,2013-07-13 09:36:00,
2013-07-13 04:41:00,67.1,58.2,30.07,South,183,0.0,1.0,73,0.00,,,0.00,VWS V14.01,2013-07-13 09:41:00,
2013-07-13 04:46:00,67.0,58.1,30.07,South,180,0.0,1.0,73,0.00,,,0.00,VWS V14.01,2013-07-13 09:46:00,
2013-07-13 04:51:00,66.9,58.0,30.07,SE,136,0.0,1.0,73,0.00,,,0.00,VWS V14.01,2013-07-13 09:51:00,
2013-07-13 04:56:00,66.8,57.9,30.07,SE,126,1.5,1.5,73,0.00,,,0.00,VWS V14.01,2013-07-13 09:56:00,
2013-07-13 05:01:00,66.7,57.4,30.07,SSE,148,0.0,1.0,72,0.00,,,0.00,VWS V14.01,2013-07-13 10:01:00,
2013-07-13 05:06:00,66.7,57.4,30.07,SSE,166,0.0,1.0,72,0.00,,,0.00,VWS V14.01,2013-07-13 10:06:00,
2013-07-13 05:11:00,66.7,57.4,30.07,SE,138,0.0,1.0,72,0.00,,,0.00,VWS V14.01,2013-07-13 10:11:00,
2013-07-13 05:16:00,66.6,57.3,30.07,SE,128,0.0,1.0,72,0.00,,,0.00,VWS V14.01,2013-07-13 10:16:00,
2013-07-13 05:21:00,66.6,56.9,30.07,SSW,193,1.5,2.0,71,0.00,,,0.00,VWS V14.01,2013-07-13 10:21:00,
2013-07-13 05:26:00,66.6,56.9,30.07,SSE,160,0.0,2.0,71,0.00,,,0.00,VWS V14.01,2013-07-13 10:26:00,
2013-07-13 05:31:00,66.6,56.9,30.07,SSW,195,0.0,2.0,71,0.00,,,0.00,VWS V14.01,2013-07-13 10:31:00,
2013-07-13 05:36:00,66.6,56.9,30.07,SE,145,1.5,2.0,71,0.00,,,0.00,VWS V14.01,2013-07-13 10:36:00,
2013-07-13 05:41:00,66.6,56.5,30.07,ESE,118,0.0,2.0,70,0.00,,,0.00,VWS V14.01,2013-07-13 10:41:00,
2013-07-13 05:46:00,66.6,56.5,30.07,SE,126,0.0,2.0,70,0.00,,,0.00,VWS V14.01,2013-07-13 10:46:00,
2013-07-13 05:51:00,66.6,56.5,30.07,South,169,0.0,2.0,70,0.00,,,0.00,VWS V14.01,2013-07-13 10:51:00,
2013-07-13 05:56:00,66.6,56.5,30.07,SE,139,1.5,2.0,70,0.00,,,0.00,VWS V14.01,2013-07-13 10:56:00,
2013-07-13 06:00:00,66.6,56.5,30.08,SSE,153,0.0,2.0,70,0.00,,,0.00,VWS V14.01,2013-07-13 11:00:00,
2013-07-13 06:01:00,66.6,56.1,30.08,South,169,1.5,1.5,69,0.00,,,0.00,VWS V14.01,2013-07-13 11:01:00,
2013-07-13 06:06:00,66.6,56.1,30.08,SSE,162,1.5,2.0,69,0.00,,,0.00,VWS V14.01,2013-07-13 11:06:00,
2013-07-13 06:11:00,66.7,56.2,30.08,ESE,108,0.0,4.0,69,0.00,,,0.00,VWS V14.01,2013-07-13 11:11:00,
2013-07-13 06:16:00,66.7,56.2,30.08,SSW,198,0.0,4.0,69,0.00,,,0.00,VWS V14.01,2013-07-13 11:16:00,
2013-07-13 06:21:00,66.7,56.2,30.08,East,90,0.0,4.0,69,0.00,,,0.00,VWS V14.01,2013-07-13 11:21:00,
2013-07-13 06:26:00,66.6,56.1,30.08,SSE,164,0.0,4.0,69,0.00,,,0.00,VWS V14.01,2013-07-13 11:26:00,
2013-07-13 06:31:00,66.6,56.1,30.08,SSE,162,1.5,4.0,69,0.00,,,0.00,VWS V14.01,2013-07-13 11:31:00,
2013-07-13 06:36:00,66.8,56.3,30.08,SSW,198,0.0,4.0,69,0.00,,,0.00,VWS V14.01,2013-07-13 11:36:00,
2013-07-13 06:41:00,67.2,56.3,30.08,SSE,160,3.0,4.0,68,0.00,,,0.00,VWS V14.01,2013-07-13 11:41:00,
2013-07-13 06:46:00,67.9,56.5,30.08,SSE,160,0.0,4.0,67,0.00,,,0.00,VWS V14.01,2013-07-13 11:46:00,
2013-07-13 06:51:00,68.3,56.5,30.08,SSW,198,0.0,4.0,66,0.00,,,0.00,VWS V14.01,2013-07-13 11:51:00,
2013-07-13 06:56:00,68.8,57.0,30.08,SE,142,3.0,4.0,66,0.00,,,0.00,VWS V14.01,2013-07-13 11:56:00,
2013-07-13 07:01:00,69.0,57.2,30.08,South,185,0.0,4.0,66,0.00,,,0.00,VWS V14.01,2013-07-13 12:01:00,
2013-07-13 07:06:00,69.4,57.1,30.08,SE,139,0.0,4.0,65,0.00,,,0.00,VWS V14.01,2013-07-13 12:06:00,
2013-07-13 07:11:00,69.7,57.4,30.08,South,170,4.5,4.5,65,0.00,,,0.00,VWS V14.01,2013-07-13 12:11:00,
2013-07-13 07:16:00,70.0,57.3,30.08,SE,132,1.5,4.0,64,0.00,,,0.00,VWS V14.01,2013-07-13 12:16:00,
2013-07-13 07:21:00,70.4,57.7,30.08,SE,138,1.5,4.0,64,0.00,,,0.00,VWS V14.01,2013-07-13 12:21:00,
2013-07-13 07:26:00,70.5,57.3,30.08,SSE,159,3.0,4.0,63,0.00,,,0.00,VWS V14.01,2013-07-13 12:26:00,
2013-07-13 07:31:00,70.6,57.8,30.08,SSW,194,1.5,4.0,64,0.00,,,0.00,VWS V14.01,2013-07-13 12:31:00,
2013-07-13 07:36:00,71.0,57.8,30.08,ESE,123,0.0,4.0,63,0.00,,,0.00,VWS V14.01,2013-07-13 12:36:00,
2013-07-13 07:41:00,71.2,58.4,30.08,SE,129,3.0,4.0,64,0.00,,,0.00,VWS V14.01,2013-07-13 12:41:00,
2013-07-13 07:46:00,71.4,58.6,30.09,SSE,162,1.5,4.0,64,0.00,,,0.00,VWS V14.01,2013-07-13 12:46:00,
2013-07-13 07:51:00,71.7,58.5,30.09,South,188,1.5,4.0,63,0.00,,,0.00,VWS V14.01,2013-07-13 12:51:00,
2013-07-13 07:56:00,71.9,58.6,30.08,SSE,163,1.5,4.0,63,0.00,,,0.00,VWS V14.01,2013-07-13 12:56:00,
2013-07-13 08:00:00,72.3,59.0,30.08,South,191,4.5,4.5,63,0.00,,,0.00,VWS V14.01,2013-07-13 13:00:00,
2013-07-13 08:01:00,72.3,59.0,30.08,SSE,167,0.0,4.0,63,0.00,,,0.00,VWS V14.01,2013-07-13 13:01:00,
2013-07-13 08:06:00,72.5,58.8,30.08,SE,146,0.0,4.0,62,0.00,,,0.00,VWS V14.01,2013-07-13 13:06:00,
2013-07-13 08:11:00,73.0,59.7,30.08,SE,125,0.0,4.0,63,0.00,,,0.00,VWS V14.01,2013-07-13 13:11:00,
2013-07-13 08:16:00,73.9,59.2,30.08,South,186,6.0,6.0,60,0.00,,,0.00,VWS V14.01,2013-07-13 13:16:00,
2013-07-13 08:21:00,74.0,59.7,30.08,SSE,152,0.0,6.0,61,0.00,,,0.00,VWS V14.01,2013-07-13 13:21:00,
2013-07-13 08:26:00,74.2,59.4,30.08,SSE,150,1.5,6.0,60,0.00,,,0.00,VWS V14.01,2013-07-13 13:26:00,
2013-07-13 08:31:00,74.3,58.6,30.08,SSW,205,3.0,6.0,58,0.00,,,0.00,VWS V14.01,2013-07-13 13:31:00,
2013-07-13 08:36:00,74.7,59.4,30.09,SSW,193,1.5,6.0,59,0.00,,,0.00,VWS V14.01,2013-07-13 13:36:00,
2013-07-13 08:41:00,75.2,58.9,30.09,SSE,159,9.0,9.0,57,0.00,,,0.00,VWS V14.01,2013-07-13 13:41:00,
2013-07-13 08:46:00,75.5,59.2,30.09,South,184,4.5,8.0,57,0.00,,,0.00,VWS V14.01,2013-07-13 13:46:00,
2013-07-13 08:51:00,76.0,60.2,30.09,SE,146,4.5,8.0,58,0.00,,,0.00,VWS V14.01,2013-07-13 13:51:00,
2013-07-13 08:56:00,76.1,59.3,30.10,SSE,148,1.5,8.0,56,0.00,,,0.00,VWS V14.01,2013-07-13 13:56:00,
2013-07-13 09:01:00,76.3,60.0,30.10,South,180,4.5,8.0,57,0.00,,,0.00,VWS V14.01,2013-07-13 14:01:00,
2013-07-13 09:06:00,76.5,60.2,30.10,SE,127,1.5,8.0,57,0.00,,,0.00,VWS V14.01,2013-07-13 14:06:00,
2013-07-13 09:11:00,76.9,60.5,30.10,SE,127,0.0,8.0,57,0.00,,,0.00,VWS V14.01,2013-07-13 14:11:00,
2013-07-13 09:16:00,77.5,61.6,30.10,SSE,150,0.0,8.0,58,0.00,,,0.00,VWS V14.01,2013-07-13 14:16:00,
2013-07-13 09:21:00,78.4,61.4,30.10,SSE,159,1.5,8.0,56,0.00,,,0.00,VWS V14.01,2013-07-13 14:21:00,
2013-07-13 09:26:00,79.1,61.0,30.09,South,172,6.0,8.0,54,0.00,,,0.00,VWS V14.01,2013-07-13 14:26:00,
2013-07-13 09:31:00,78.8,61.3,30.10,ESE,114,4.5,8.0,55,0.00,,,0.00,VWS V14.01,2013-07-13 14:31:00,
2013-07-13 09:36:00,79.3,62.3,30.10,ESE,104,4.5,8.0,56,0.00,,,0.00,VWS V14.01,2013-07-13 14:36:00,
2013-07-13 09:41:00,79.5,60.9,30.10,ESE,118,0.0,8.0,53,0.00,,,0.00,VWS V14.01,2013-07-13 14:41:00,
2013-07-13 09:46:00,79.7,60.0,30.10,South,191,3.0,8.0,51,0.00,,,0.00,VWS V14.01,2013-07-13 14:46:00,
2013-07-13 09:51:00,79.8,60.6,30.09,SSW,200,0.0,8.0,52,0.00,,,0.00,VWS V14.01,2013-07-13 14:51:00,
2013-07-13 09:56:00,80.1,60.4,30.09,SSE,158,1.5,8.0,51,0.00,,,0.00,VWS V14.01,2013-07-13 14:56:00,
2013-07-13 10:04:00,80.3,60.5,30.09,East,87,3.0,3.0,51,0.00,,,0.00,VWS V14.01,2013-07-13 15:04:00,
2013-07-13 10:09:00,80.3,60.5,30.10,SE,135,3.0,4.0,51,0.00,,,0.00,VWS V14.01,2013-07-13 15:09:00,
2013-07-13 10:14:00,80.5,60.7,30.10,ESE,104,3.0,5.0,51,0.00,,,0.00,VWS V14.01,2013-07-13 15:14:00,
2013-07-13 10:19:00,81.0,61.2,30.10,SE,124,1.5,5.0,51,0.00,,,0.00,VWS V14.01,2013-07-13 15:19:00,
2013-07-13 10:24:00,81.4,61.0,30.10,SSE,162,3.0,5.0,50,0.00,,,0.00,VWS V14.01,2013-07-13 15:24:00,
2013-07-13 10:29:00,81.6,60.6,30.10,ENE,77,1.5,5.0,49,0.00,,,0.00,VWS V14.01,2013-07-13 15:29:00,
2013-07-13 10:34:00,81.3,60.9,30.10,ENE,72,6.0,6.0,50,0.00,,,0.00,VWS V14.01,2013-07-13 15:34:00,
2013-07-13 10:39:00,80.9,61.6,30.10,NE,54,0.0,5.0,52,0.00,,,0.00,VWS V14.01,2013-07-13 15:39:00,
2013-07-13 10:44:00,81.4,62.1,30.10,ESE,108,1.5,5.0,52,0.00,,,0.00,VWS V14.01,2013-07-13 15:44:00,
2013-07-13 10:49:00,82.2,62.3,30.10,East,96,3.0,5.0,51,0.00,,,0.00,VWS V14.01,2013-07-13 15:49:00,
2013-07-13 10:54:00,82.2,61.2,30.10,ENE,58,3.0,5.0,49,0.00,,,0.00,VWS V14.01,2013-07-13 15:54:00,
2013-07-13 10:59:00,82.0,62.1,30.10,ENE,68,3.0,5.0,51,0.00,,,0.00,VWS V14.01,2013-07-13 15:59:00,
2013-07-13 11:04:00,82.4,61.3,30.10,SSW,203,1.5,5.0,49,0.00,,,0.00,VWS V14.01,2013-07-13 16:04:00,
2013-07-13 11:09:00,82.5,61.4,30.10,ENE,72,4.5,5.0,49,0.00,,,0.00,VWS V14.01,2013-07-13 16:09:00,
2013-07-13 11:14:00,82.3,61.2,30.09,NE,45,0.0,5.0,49,0.00,,,0.00,VWS V14.01,2013-07-13 16:14:00,
2013-07-13 11:19:00,82.5,62.0,30.10,NW,319,0.0,5.0,50,0.00,,,0.00,VWS V14.01,2013-07-13 16:19:00,
2013-07-13 11:24:00,83.3,63.3,30.09,ENE,77,0.0,5.0,51,0.00,,,0.00,VWS V14.01,2013-07-13 16:24:00,
2013-07-13 11:29:00,84.2,63.0,30.09,SSE,166,3.0,5.0,49,0.00,,,0.00,VWS V14.01,2013-07-13 16:29:00,
2013-07-13 11:34:00,84.7,62.3,30.09,ENE,58,0.0,5.0,47,0.00,,,0.00,VWS V14.01,2013-07-13 16:34:00,
2013-07-13 11:39:00,85.0,62.5,30.08,North,356,1.5,5.0,47,0.00,,,0.00,VWS V14.01,2013-07-13 16:39:00,
2013-07-13 11:44:00,85.1,62.0,30.08,SSW,204,0.0,5.0,46,0.00,,,0.00,VWS V14.01,2013-07-13 16:44:00,
2013-07-13 11:49:00,85.8,60.1,30.08,SSE,150,0.0,5.0,42,0.00,,,0.00,VWS V14.01,2013-07-13 16:49:00,
2013-07-13 11:54:00,86.2,62.4,30.08,East,93,0.0,5.0,45,0.00,,,0.00,VWS V14.01,2013-07-13 16:54:00,
2013-07-13 11:59:00,86.0,62.8,30.08,North,9,1.5,5.0,46,0.00,,,0.00,VWS V14.01,2013-07-13 16:59:00,
2013-07-13 12:00:00,85.8,61.4,30.08,NW,315,0.0,5.0,44,0.00,,,0.00,VWS V14.01,2013-07-13 17:00:00,
2013-07-13 12:04:00,86.1,62.3,30.08,NNE,23,0.0,1.0,45,0.00,,,0.00,VWS V14.01,2013-07-13 17:04:00,
2013-07-13 12:09:00,87.0,64.3,30.08,North,6,0.0,1.0,47,0.00,,,0.00,VWS V14.01,2013-07-13 17:09:00,
2013-07-13 12:14:00,87.2,62.0,30.08,North,352,4.5,4.5,43,0.00,,,0.00,VWS V14.01,2013-07-13 17:14:00,
2013-07-13 12:19:00,85.9,61.5,30.08,East,82,1.5,6.0,44,0.00,,,0.00,VWS V14.01,2013-07-13 17:19:00,
2013-07-13 12:24:00,85.2,60.2,30.08,East,86,3.0,6.0,43,0.00,,,0.00,VWS V14.01,2013-07-13 17:24:00,
2013-07-13 12:29:00,85.3,59.6,30.08,ENE,78,1.5,6.0,42,0.00,,,0.00,VWS V14.01,2013-07-13 17:29:00,
2013-07-13 12:34:00,85.4,59.7,30.08,ESE,112,3.0,6.0,42,0.00,,,0.00,VWS V14.01,2013-07-13 17:34:00,
2013-07-13 12:39:00,85.4,60.4,30.08,ENE,70,3.0,6.0,43,0.00,,,0.00,VWS V14.01,2013-07-13 17:39:00,
2013-07-13 12:44:00,85.4,59.7,30.08,ENE,71,3.0,6.0,42,0.00,,,0.00,VWS V14.01,2013-07-13 17:44:00,
2013-07-13 12:49:00,85.4,61.0,30.08,East,80,3.0,6.0,44,0.00,,,0.00,VWS V14.01,2013-07-13 17:49:00,
2013-07-13 12:54:00,85.4,61.0,30.08,ENE,69,1.5,6.0,44,0.00,,,0.00,VWS V14.01,2013-07-13 17:54:00,
2013-07-13 12:59:00,85.7,60.0,30.07,ENE,78,4.5,6.0,42,0.00,,,0.00,VWS V14.01,2013-07-13 17:59:00,
2013-07-13 13:04:00,85.8,60.7,30.07,ENE,78,0.0,6.0,43,0.00,,,0.00,VWS V14.01,2013-07-13 18:04:00,
2013-07-13 13:09:00,86.5,61.4,30.07,South,176,1.5,6.0,43,0.00,,,0.00,VWS V14.01,2013-07-13 18:09:00,
2013-07-13 13:14:00,87.2,62.0,30.07,NNW,328,1.5,6.0,43,0.00,,,0.00,VWS V14.01,2013-07-13 18:14:00,
2013-07-13 13:19:00,86.9,61.1,30.07,East,85,3.0,6.0,42,0.00,,,0.00,VWS V14.01,2013-07-13 18:19:00,
2013-07-13 13:24:00,87.0,60.5,30.06,NE,54,0.0,6.0,41,0.00,,,0.00,VWS V14.01,2013-07-13 18:24:00,
2013-07-13 13:29:00,87.0,61.8,30.06,NNE,16,0.0,6.0,43,0.00,,,0.00,VWS V14.01,2013-07-13 18:29:00,
2013-07-13 13:34:00,87.4,63.5,30.06,East,82,3.0,6.0,45,0.00,,,0.00,VWS V14.01,2013-07-13 18:34:00,
2013-07-13 13:39:00,87.6,62.4,30.06,East,101,3.0,6.0,43,0.00,,,0.00,VWS V14.01,2013-07-13 18:39:00,
2013-07-13 13:44:00,87.4,63.5,30.06,East,94,1.5,6.0,45,0.00,,,0.00,VWS V14.01,2013-07-13 18:44:00,
2013-07-13 13:49:00,87.9,63.3,30.05,ENE,69,3.0,6.0,44,0.00,,,0.00,VWS V14.01,2013-07-13 18:49:00,
2013-07-13 13:54:00,88.0,63.4,30.05,SE,129,1.5,6.0,44,0.00,,,0.00,VWS V14.01,2013-07-13 18:54:00,
2013-07-13 13:59:00,88.1,63.5,30.05,East,79,1.5,6.0,44,0.00,,,0.00,VWS V14.01,2013-07-13 18:59:00,
2013-07-13 14:00:00,88.1,62.8,30.06,NE,35,4.5,6.0,43,0.00,,,0.00,VWS V14.01,2013-07-13 19:00:00,
2013-07-13 14:04:00,88.1,63.5,30.05,NNE,25,1.5,3.0,44,0.00,,,0.00,VWS V14.01,2013-07-13 19:04:00,
2013-07-13 14:09:00,88.2,65.4,30.05,East,91,0.0,3.0,47,0.00,,,0.00,VWS V14.01,2013-07-13 19:09:00,
2013-07-13 14:14:00,87.9,62.6,30.05,NE,52,1.5,3.0,43,0.00,,,0.00,VWS V14.01,2013-07-13 19:14:00,
2013-07-13 14:19:00,87.8,62.5,30.05,ESE,115,3.0,3.0,43,0.00,,,0.00,VWS V14.01,2013-07-13 19:19:00,
2013-07-13 14:24:00,87.7,63.8,30.05,NE,56,4.5,6.0,45,0.00,,,0.00,VWS V14.01,2013-07-13 19:24:00,
2013-07-13 14:29:00,88.2,62.2,30.05,SSW,194,0.0,6.0,42,0.00,,,0.00,VWS V14.01,2013-07-13 19:29:00,
2013-07-13 14:34:00,88.3,63.0,30.05,NNE,16,1.5,6.0,43,0.00,,,0.00,VWS V14.01,2013-07-13 19:34:00,
2013-07-13 14:39:00,88.0,63.4,30.05,North,349,4.5,6.0,44,0.00,,,0.00,VWS V14.01,2013-07-13 19:39:00,
2013-07-13 14:44:00,87.8,63.8,30.04,North,8,3.0,6.0,45,0.00,,,0.00,VWS V14.01,2013-07-13 19:44:00,
2013-07-13 14:49:00,87.7,63.1,30.05,NE,34,6.0,6.0,44,0.00,,,0.00,VWS V14.01,2013-07-13 19:49:00,
2013-07-13 14:54:00,87.5,62.3,30.04,East,81,3.0,6.0,43,0.00,,,0.00,VWS V14.01,2013-07-13 19:54:00,
2013-07-13 14:59:00,87.4,62.8,30.05,NW,304,1.5,6.0,44,0.00,,,0.00,VWS V14.01,2013-07-13 19:59:00,
2013-07-13 15:04:00,87.4,63.5,30.04,North,349,3.0,6.0,45,0.00,,,0.00,VWS V14.01,2013-07-13 20:04:00,
2013-07-13 15:09:00,87.3,62.7,30.04,North,359,3.0,6.0,44,0.00,,,0.00,VWS V14.01,2013-07-13 20:09:00,
2013-07-13 15:14:00,87.2,62.0,30.04,ENE,72,1.5,7.0,43,0.00,,,0.00,VWS V14.01,2013-07-13 20:14:00,
2013-07-13 15:19:00,87.2,62.7,30.04,NNE,33,4.5,7.0,44,0.00,,,0.00,VWS V14.01,2013-07-13 20:19:00,
2013-07-13 15:24:00,87.1,61.2,30.04,ENE,77,0.0,7.0,42,0.00,,,0.00,VWS V14.01,2013-07-13 20:24:00,
2013-07-13 15:29:00,87.1,63.2,30.04,NNE,33,4.5,7.0,45,0.00,,,0.00,VWS V14.01,2013-07-13 20:29:00,
2013-07-13 15:34:00,87.1,62.6,30.04,ENE,74,6.0,7.0,44,0.00,,,0.00,VWS V14.01,2013-07-13 20:34:00,
2013-07-13 15:39:00,86.9,61.1,30.04,NNE,33,1.5,7.0,42,0.00,,,0.00,VWS V14.01,2013-07-13 20:39:00,
2013-07-13 15:44:00,86.9,62.4,30.04,East,83,4.5,7.0,44,0.00,,,0.00,VWS V14.01,2013-07-13 20:44:00,
2013-07-13 15:49:00,86.9,62.4,30.03,ENE,57,6.0,7.0,44,0.00,,,0.00,VWS V14.01,2013-07-13 20:49:00,
2013-07-13 15:54:00,86.8,62.3,30.03,NW,319,1.5,7.0,44,0.00,,,0.00,VWS V14.01,2013-07-13 20:54:00,
2013-07-13 15:59:00,87.0,61.8,30.03,NNE,33,1.5,8.0,43,0.00,,,0.00,VWS V14.01,2013-07-13 20:59:00,
2013-07-13 16:00:00,87.1,61.9,30.03,NNW,339,3.0,8.0,43,0.00,,,0.00,VWS V14.01,2013-07-13 21:00:00,
2013-07-13 16:04:00,87.3,62.7,30.03,East,81,1.5,6.0,44,0.00,,,0.00,VWS V14.01,2013-07-13 21:04:00,
2013-07-13 16:09:00,87.7,63.1,30.02,South,188,1.5,6.0,44,0.00,,,0.00,VWS V14.01,2013-07-13 21:09:00,
2013-07-13 16:14:00,88.3,63.7,30.02,SE,129,0.0,6.0,44,0.00,,,0.00,VWS V14.01,2013-07-13 21:14:00,
2013-07-13 16:19:00,87.9,63.9,30.03,ENE,60,1.5,6.0,45,0.00,,,0.00,VWS V14.01,2013-07-13 21:19:00,
2013-07-13 16:24:00,87.9,63.3,30.03,ENE,77,3.0,6.0,44,0.00,,,0.00,VWS V14.01,2013-07-13 21:24:00,
2013-07-13 16:29:00,87.9,63.9,30.03,East,81,1.5,6.0,45,0.00,,,0.00,VWS V14.01,2013-07-13 21:29:00,
2013-07-13 16:34:00,87.6,63.0,30.03,NNE,16,1.5,6.0,44,0.00,,,0.00,VWS V14.01,2013-07-13 21:34:00,
2013-07-13 16:39:00,87.1,62.6,30.03,East,87,3.0,6.0,44,0.00,,,0.00,VWS V14.01,2013-07-13 21:39:00,
2013-07-13 16:44:00,87.0,63.1,30.03,East,94,1.5,6.0,45,0.00,,,0.00,VWS V14.01,2013-07-13 21:44:00,
2013-07-13 16:49:00,87.1,63.8,30.03,ENE,72,3.0,6.0,46,0.00,,,0.00,VWS V14.01,2013-07-13 21:49:00,
2013-07-13 16:54:00,86.9,63.0,30.03,SE,138,1.5,6.0,45,0.00,,,0.00,VWS V14.01,2013-07-13 21:54:00,
2013-07-13 16:59:00,87.2,63.3,30.03,East,83,0.0,6.0,45,0.00,,,0.00,VWS V14.01,2013-07-13 21:59:00,
2013-07-13 17:04:00,87.1,63.2,30.03,ENE,70,4.5,6.0,45,0.00,,,0.00,VWS V14.01,2013-07-13 22:04:00,
2013-07-13 17:09:00,87.0,63.7,30.02,North,11,3.0,6.0,46,0.00,,,0.00,VWS V14.01,2013-07-13 22:09:00,
2013-07-13 17:14:00,86.7,62.8,30.02,ENE,58,1.5,6.0,45,0.00,,,0.00,VWS V14.01,2013-07-13 22:14:00,
2013-07-13 17:19:00,86.4,63.2,30.02,East,79,1.5,6.0,46,0.00,,,0.00,VWS V14.01,2013-07-13 22:19:00,
2013-07-13 17:24:00,86.1,62.9,30.02,ENE,68,3.0,6.0,46,0.00,,,0.00,VWS V14.01,2013-07-13 22:24:00,
2013-07-13 17:29:00,85.8,63.3,30.02,East,79,4.5,6.0,47,0.00,,,0.00,VWS V14.01,2013-07-13 22:29:00,
2013-07-13 17:34:00,85.6,63.7,30.02,NNE,30,1.5,6.0,48,0.00,,,0.00,VWS V14.01,2013-07-13 22:34:00,
2013-07-13 17:39:00,85.5,62.4,30.02,NNE,26,3.0,6.0,46,0.00,,,0.00,VWS V14.01,2013-07-13 22:39:00,
2013-07-13 17:44:00,85.4,62.9,30.02,ENE,59,1.5,6.0,47,0.00,,,0.00,VWS V14.01,2013-07-13 22:44:00,
2013-07-13 17:49:00,85.4,62.3,30.02,East,82,4.5,6.0,46,0.00,,,0.00,VWS V14.01,2013-07-13 22:49:00,
2013-07-13 17:54:00,85.2,62.1,30.02,North,6,3.0,8.0,46,0.00,,,0.00,VWS V14.01,2013-07-13 22:54:00,
2013-07-13 17:59:00,85.0,61.3,30.02,NE,46,0.0,8.0,45,0.00,,,0.00,VWS V14.01,2013-07-13 22:59:00,
2013-07-13 18:00:00,85.0,60.7,30.02,NE,45,1.5,8.0,44,0.00,,,0.00,VWS V14.01,2013-07-13 23:00:00,
2013-07-13 18:04:00,85.0,60.7,30.02,ENE,61,1.5,6.0,44,0.00,,,0.00,VWS V14.01,2013-07-13 23:04:00,
2013-07-13 18:09:00,84.9,60.6,30.02,NE,43,1.5,6.0,44,0.00,,,0.00,VWS V14.01,2013-07-13 23:09:00,
2013-07-13 18:14:00,84.9,60.6,30.02,East,89,1.5,6.0,44,0.00,,,0.00,VWS V14.01,2013-07-13 23:14:00,
2013-07-13 18:19:00,84.8,60.5,30.01,NE,54,1.5,6.0,44,0.00,,,0.00,VWS V14.01,2013-07-13 23:19:00,
2013-07-13 18:24:00,84.7,60.4,30.02,ENE,62,3.0,6.0,44,0.00,,,0.00,VWS V14.01,2013-07-13 23:24:00,
2013-07-13 18:29:00,84.6,60.3,30.02,NE,43,6.0,6.0,44,0.00,,,0.00,VWS V14.01,2013-07-13 23:29:00,
2013-07-13 18:34:00,84.6,60.3,30.02,NNE,17,1.5,6.0,44,0.00,,,0.00,VWS V14.01,2013-07-13 23:34:00,
2013-07-13 18:39:00,84.4,60.1,30.02,ENE,72,7.5,7.5,44,0.00,,,0.00,VWS V14.01,2013-07-13 23:39:00,
2013-07-13 18:44:00,84.2,60.0,30.02,East,87,0.0,6.0,44,0.00,,,0.00,VWS V14.01,2013-07-13 23:44:00,
2013-07-13 18:49:00,84.1,60.5,30.02,ENE,77,0.0,6.0,45,0.00,,,0.00,VWS V14.01,2013-07-13 23:49:00,
2013-07-13 18:54:00,84.0,60.4,30.02,NE,54,3.0,6.0,45,0.00,,,0.00,VWS V14.01,2013-07-13 23:54:00,
2013-07-13 18:59:00,83.9,60.3,30.02,ENE,67,0.0,6.0,45,0.00,,,0.00,VWS V14.01,2013-07-13 23:59:00,
2013-07-13 19:04:00,83.8,61.4,30.02,East,83,4.5,6.0,47,0.00,,,0.00,VWS V14.01,2013-07-14 00:04:00,
2013-07-13 19:09:00,83.6,61.3,30.02,ENE,70,0.0,6.0,47,0.00,,,0.00,VWS V14.01,2013-07-14 00:09:00,
2013-07-13 19:14:00,83.4,60.5,30.02,ENE,68,12.0,12.0,46,0.00,,,0.00,VWS V14.01,2013-07-14 00:14:00,
2013-07-13 19:19:00,83.2,60.3,30.02,ESE,120,1.5,8.0,46,0.00,,,0.00,VWS V14.01,2013-07-14 00:19:00,
2013-07-13 19:24:00,82.9,60.6,30.01,East,88,3.0,8.0,47,0.00,,,0.00,VWS V14.01,2013-07-14 00:24:00,
2013-07-13 19:29:00,82.7,60.4,30.01,SE,124,1.5,8.0,47,0.00,,,0.00,VWS V14.01,2013-07-14 00:29:00,
2013-07-13 19:34:00,82.5,60.3,30.02,South,187,0.0,8.0,47,0.00,,,0.00,VWS V14.01,2013-07-14 00:34:00,
2013-07-13 19:39:00,82.4,60.2,30.01,South,174,0.0,8.0,47,0.00,,,0.00,VWS V14.01,2013-07-14 00:39:00,
2013-07-13 19:44:00,82.4,60.2,30.02,ESE,122,3.0,8.0,47,0.00,,,0.00,VWS V14.01,2013-07-14 00:44:00,
2013-07-13 19:49:00,82.3,60.1,30.02,SSE,148,1.5,8.0,47,0.00,,,0.00,VWS V14.01,2013-07-14 00:49:00,
2013-07-13 19:54:00,82.1,59.9,30.01,SE,128,3.0,8.0,47,0.00,,,0.00,VWS V14.01,2013-07-14 00:54:00,
2013-07-13 19:59:00,82.0,59.2,30.02,SE,136,1.5,8.0,46,0.00,,,0.00,VWS V14.01,2013-07-14 00:59:00,
2013-07-13 20:00:00,82.0,59.2,30.02,SSE,160,1.5,8.0,46,0.00,,,0.00,VWS V14.01,2013-07-14 01:00:00,
2013-07-13 20:04:00,81.9,59.1,30.02,ESE,113,0.0,2.0,46,0.00,,,0.00,VWS V14.01,2013-07-14 01:04:00,
2013-07-13 20:09:00,81.7,58.9,30.01,South,169,0.0,3.0,46,0.00,,,0.00,VWS V14.01,2013-07-14 01:09:00,
2013-07-13 20:14:00,81.7,58.9,30.02,SSE,162,0.0,4.0,46,0.00,,,0.00,VWS V14.01,2013-07-14 01:14:00,
2013-07-13 20:19:00,81.5,58.8,30.01,ENE,73,0.0,5.0,46,0.00,,,0.00,VWS V14.01,2013-07-14 01:19:00,
2013-07-13 20:24:00,81.3,58.6,30.01,ESE,117,1.5,5.0,46,0.00,,,0.00,VWS V14.01,2013-07-14 01:24:00,
2013-07-13 20:29:00,81.2,58.5,30.01,South,172,1.5,5.0,46,0.00,,,0.00,VWS V14.01,2013-07-14 01:29:00,
2013-07-13 20:34:00,81.1,58.4,30.01,ENE,70,4.5,5.0,46,0.00,,,0.00,VWS V14.01,2013-07-14 01:34:00,
2013-07-13 20:39:00,80.9,58.8,30.01,South,171,1.5,5.0,47,0.00,,,0.00,VWS V14.01,2013-07-14 01:39:00,
2013-07-13 20:44:00,80.8,58.7,30.02,SSE,152,0.0,5.0,47,0.00,,,0.00,VWS V14.01,2013-07-14 01:44:00,
2013-07-13 20:49:00,80.6,59.1,30.02,ESE,113,0.0,5.0,48,0.00,,,0.00,VWS V14.01,2013-07-14 01:49:00,
2013-07-13 20:54:00,80.4,58.9,30.02,ESE,113,1.5,5.0,48,0.00,,,0.00,VWS V14.01,2013-07-14 01:54:00,
2013-07-13 20:59:00,80.2,59.3,30.02,ENE,75,0.0,5.0,49,0.00,,,0.00,VWS V14.01,2013-07-14 01:59:00,
2013-07-13 21:04:00,80.0,59.1,30.02,SSE,153,0.0,5.0,49,0.00,,,0.00,VWS V14.01,2013-07-14 02:04:00,
2013-07-13 21:09:00,79.9,59.0,30.02,SSE,166,1.5,5.0,49,0.00,,,0.00,VWS V14.01,2013-07-14 02:09:00,
2013-07-13 21:14:00,79.8,59.0,30.02,SE,145,1.5,5.0,49,0.00,,,0.00,VWS V14.01,2013-07-14 02:14:00,
2013-07-13 21:19:00,79.8,59.0,30.02,South,184,0.0,5.0,49,0.00,,,0.00,VWS V14.01,2013-07-14 02:19:00,
2013-07-13 21:24:00,79.7,59.4,30.02,South,187,0.0,5.0,50,0.00,,,0.00,VWS V14.01,2013-07-14 02:24:00,
2013-07-13 21:29:00,79.6,58.8,30.02,SSE,158,1.5,5.0,49,0.00,,,0.00,VWS V14.01,2013-07-14 02:29:00,
2013-07-13 21:34:00,79.5,58.7,30.02,SSE,148,0.0,5.0,49,0.00,,,0.00,VWS V14.01,2013-07-14 02:34:00,
2013-07-13 21:39:00,79.4,58.6,30.02,SSE,150,0.0,5.0,49,0.00,,,0.00,VWS V14.01,2013-07-14 02:39:00,
2013-07-13 21:44:00,79.2,58.4,30.02,South,187,1.5,5.0,49,0.00,,,0.00,VWS V14.01,2013-07-14 02:44:00,
2013-07-13 21:49:00,79.1,58.9,30.02,SSW,195,0.0,5.0,50,0.00,,,0.00,VWS V14.01,2013-07-14 02:49:00,
2013-07-13 21:54:00,78.8,59.2,30.02,SE,139,0.0,5.0,51,0.00,,,0.00,VWS V14.01,2013-07-14 02:54:00,
2013-07-13 21:59:00,78.6,59.5,30.02,South,170,0.0,5.0,52,0.00,,,0.00,VWS V14.01,2013-07-14 02:59:00,
2013-07-13 22:00:00,78.6,59.5,30.02,SSE,162,1.5,5.0,52,0.00,,,0.00,VWS V14.01,2013-07-14 03:00:00,
2013-07-13 22:04:00,78.5,58.9,30.02,South,184,3.0,4.0,51,0.00,,,0.00,VWS V14.01,2013-07-14 03:04:00,
2013-07-13 22:09:00,78.5,58.9,30.02,SSW,193,4.5,5.0,51,0.00,,,0.00,VWS V14.01,2013-07-14 03:09:00,
2013-07-13 22:14:00,78.5,59.4,30.02,South,179,1.5,5.0,52,0.00,,,0.00,VWS V14.01,2013-07-14 03:14:00,
2013-07-13 22:19:00,78.4,58.8,30.01,SSE,151,1.5,5.0,51,0.00,,,0.00,VWS V14.01,2013-07-14 03:19:00,
2013-07-13 22:24:00,78.3,58.7,30.01,SSW,193,0.0,5.0,51,0.00,,,0.00,VWS V14.01,2013-07-14 03:24:00,
2013-07-13 22:29:00,78.1,59.1,30.01,SE,146,6.0,6.0,52,0.00,,,0.00,VWS V14.01,2013-07-14 03:29:00,
2013-07-13 22:34:00,78.1,59.1,30.01,SSE,148,3.0,5.0,52,0.00,,,0.00,VWS V14.01,2013-07-14 03:34:00,
2013-07-13 22:39:00,78.1,59.1,30.01,SSE,152,1.5,5.0,52,0.00,,,0.00,VWS V14.01,2013-07-14 03:39:00,
2013-07-13 22:44:00,78.0,59.0,30.02,SSE,155,0.0,5.0,52,0.00,,,0.00,VWS V14.01,2013-07-14 03:44:00,
2013-07-13 22:49:00,77.8,59.3,30.02,SSE,168,0.0,5.0,53,0.00,,,0.00,VWS V14.01,2013-07-14 03:49:00,
2013-07-13 22:54:00,77.6,59.7,30.03,East,96,1.5,5.0,54,0.00,,,0.00,VWS V14.01,2013-07-14 03:54:00,